914  
SXUS52 KTAE 161216  
OSOTAE  
OSOTAE  
NORTH FLORIDA/SOUTH ALABAMA/SOUTHWEST GEORGIA WEATHER ROUNDUP  
NATIONAL WEATHER SERVICE TALLAHASSEE FLORIDA  
800 AM EDT SAT OCT 16 2021  
 
NOTE: "FAIR" INDICATES FEW OR NO CLOUDS BELOW 12,000 FEET WITH NO  
SIGNIFICANT WEATHER AND/OR OBSTRUCTIONS TO VISIBILITY.  
 
!FLZ017-115-028-034-025-161300   
..NORTH FLORIDA
 
 
 
CITY SKY/WX TMP DP RH WIND PRES REMARKS  
TALL INTL ARPT MOCLDY 68 67 96 CALM 29.97R FOG  
FSU LOVE BLDG N/A 73 72 94 W5 N/A  
APALACHICOLA CLEAR 70 70 100 CALM 29.96S  
PERRY NOT AVBL  
CROSS CITY CLEAR 65 65 97 CALM 29.98R  
JACKSONVILLE PTCLDY 66 66 100 W5 29.96R FOG  

 
 
!FLZ112-006-005-002-011-161300   
..FLORIDA PANHANDLE
 
 
 
CITY SKY/WX TMP DP RH WIND PRES REMARKS  
MARIANNA CLOUDY 72 71 97 CALM 29.95S FOG  
BONIFAY PTSUNNY 67 67 100 CALM 29.97S  
PANAMA CITY NW FAIR 69 68 96 CALM 29.96R  
TYNDALL AFB CLEAR 77 72 85 W5 29.96S  
TYND DRONE APT FAIR 78 73 86 NW5 29.94S  
DE FUNIAK SPR CLOUDY 71 70 98 CALM 29.98R FOG  
EGLIN AFB CLEAR 72 69 90 CALM 29.95S  
DESTIN CLEAR 79 74 84 CALM 29.96S  
HURLBURT PTCLDY 76 73 90 CALM 29.95S  
CRESTVIEW FOG 68 67 96 CALM 29.98R VSB 1/2  
PENSACOLA MOCLDY 77 75 93 NW10G20 29.97R  

 
 
!ALZ063-066-161300   
..SOUTH ALABAMA
 
 
 
CITY SKY/WX TMP DP RH WIND PRES REMARKS  
DOTHAN CLOUDY 73 73 100 W8 30.00R FOG  
OZARK CAIRNS CLOUDY 72 72 99 W6 29.96R  
FT RUCKER HELI CLOUDY 73 72 94 CALM 29.97R FOG  
RUCKER HELI 3 LGT RAIN 73 72 94 W5 29.96S FOG  
RUCKER HELI 2 CLOUDY 73 72 94 CALM 29.95R FOG  
FLORALA APT NOT AVBL  
ANDALUSIA CLOUDY 76 72 87 W6 29.97R FOG  
TROY MOCLDY 74 68 81 NW8 29.98R  
EUFALA CLOUDY 74 71 91 W3 29.96  
MOBILE MOCLDY 70 68 93 NW8 30.02R  

 
 
!GAZ120>161-161300   
..SOUTHWEST AND SOUTH CENTRAL GEORGIA
 
 
 
CITY SKY/WX TMP DP RH WIND PRES REMARKS  
THOMASVILLE FAIR 70 68 94 CALM 29.97S FOG  
BAINBRIDGE NOT AVBL  
MOODY AFB MOCLDY 66 64 94 SW3 29.96R  
VALDOSTA CLOUDY 65 64 97 CALM 29.97R FOG  
MOULTRIE PTCLDY 70 68 94 CALM 29.97S FOG  
BLAKELY CLOUDY 72 70 94 W3 29.96R  
ALBANY CLOUDY 75 71 87 W7 29.96S  
TIFTON FAIR 70 69 98 CALM 29.96R  
FITZGERALD CLOUDY 71 70 96 CALM 29.96S  
CORDELE CLOUDY 69 67 94 SW3 29.96R FOG  
AMERICUS N/A 70 68 94 W5 29.97R  
HOMERVILLE FAIR 65 64 96 CALM 29.97S  

 
 
!GMZ750-755-770-775-161300   
..COASTAL AND BUOY OBS
 
 
 
STATION/POSITION TIME TEMP WIND PRES VSBY WAVE  
AIR SEA DIR/SP/G HT/PER  
(UTC) (F) (DEG/KT/KT) (MB) (MI) (FT/S)  
KEATON BEACH 1200 71 CALM / 1 1015.3R  
CEDAR KEY 1200 79 160/ 2/ 2 1015.0R  
C TOWER 1200 79 310/ 12/ 13 1015.1R  
APALACHICOLA BUO 1200 320/ 8/ 10 1014.1  
PANAMA CITY BUOY 1150 80 290/ 10/ 12 N/A  
MOBILE BUOY 1150 81 81 280/ 10/ 12 1015.5R 1/ 6  
ORANGE BCH AL BU 1150 81 81 260/ 12/ 16 N/A 2/ 3  

 
 
 
CLICK HERE TO GO TO PREVIOUS BULLETINS.

The Nexlab FL Page
The Nexlab GA Page
The Nexlab AL Page Main Text Page